Preview of NWS' New Version of Forecast
This preview is not operational and should not be used for support decisions.

Regional Weather Roundup (RWR)

Issued by National Weather Service (NWS)

                            
000
ASUS44 KMEG 200500
RWRTN 
TENNESSEE HOURLY STATE WEATHER ROUNDUP
NATIONAL WEATHER SERVICE MEMPHIS TN
1100 PM CST TUE FEB 19 2019

TNZ002-004-019-021-049-052-054-088>092-200600-
WEST TENNESSEE
  
CITY           SKY/WX    TMP DP  RH WIND       PRES   REMARKS
MEMPHIS INTL   LGT RAIN  43  43 100 E8        29.89F FOG              
JACKSON        CLOUDY    42  41  96 SE8       29.93F FOG              
DYERSBURG      MIX PCPN  37  37 100 NE13      29.97F FOG     WCI  29  
$$

TNZ008-025-027-028-033-062-065-066-200600-
NORTH MIDDLE TENNESSEE
  
CITY           SKY/WX    TMP DP  RH WIND       PRES   REMARKS
NASHVILLE      LGT RAIN  41  38  89 E9        30.09F FOG              
CLARKSVILLE    LGT RAIN  37  34  89 SE16G24   30.04F FOG     WCI  28  
SMYRNA         LGT RAIN  41  41 100 E6        30.11F FOG              
CROSSVILLE     RAIN      38  36  92 SE8G23    30.13F FOG     WCI  32  
$$

TNZ061-075-076-078-094-096-097-200600-
SOUTH MIDDLE TENNESSEE
  
CITY           SKY/WX    TMP DP  RH WIND       PRES   REMARKS
$$

TNZ017-018-042-046-047-200600-
NORTHEAST TENNESSEE
  
CITY           SKY/WX    TMP DP  RH WIND       PRES   REMARKS
TRI CITIES     HVY RAIN  39  39 100 E9        30.30F FOG     WCI  33  
$$

TNZ012-013-036-069-073-074-200600-
CENTRAL EAST TENNESSEE
  
CITY           SKY/WX    TMP DP  RH WIND       PRES   REMARKS
KNOXVILLE      TSTM      40  39  97 NE8       30.14F FOG     WCI  34  
OAK RIDGE      RAIN      40  40 100 NE3       30.17F FOG              
$$

TNZ083-085-099-200600-
SOUTHEAST TENNESSEE
  
CITY           SKY/WX    TMP DP  RH WIND       PRES   REMARKS
CHATTANOOGA    LGT RAIN  38  38 100 CALM      30.21S FOG              
$$

SKY/WX REPORTED AS FAIR MEANS FEW OR NO CLOUDS BELOW
12 THOUSAND FEET.